Location: Michelbach Markt
(48.1000°N, 15.7500°E)
Time: 06:19:44
(UTC+01:00)

X-37B - Visible Passes

Search period start: 25 January 2022 00:00
Search period end: 04 February 2022 00:00
Orbit: 334 x 337 km, 45.0° (Epoch: 11 January)

Date Brightness Start Highest point End Pass type
(mag) Time Alt. Az. Time Alt. Az. Time Alt. Az.
27 Jan 2.7 18:38:37 10° SSW 18:39:47 15° S 18:39:47 15° S visible
28 Jan 2.6 18:58:14 10° SW 18:59:29 20° SSW 18:59:29 20° SSW visible
29 Jan 2.5 17:44:04 10° SSW 17:45:58 16° SSE 17:47:52 10° ESE visible
29 Jan 3.2 19:18:19 10° WSW 19:19:08 17° SW 19:19:08 17° SW visible
30 Jan 1.7 18:03:40 10° SW 18:06:09 27° SSE 18:07:32 18° ESE visible
30 Jan 3.9 19:38:36 10° WSW 19:38:45 11° WSW 19:38:45 11° WSW visible
31 Jan 1.2 18:23:45 10° WSW 18:26:27 39° S 18:27:08 32° SE visible
01 Feb 1.0 18:44:02 10° WSW 18:46:43 44° S 18:46:43 44° S visible
02 Feb 1.3 17:29:11 10° WSW 17:31:53 39° S 17:34:34 10° E visible
02 Feb 2.0 19:04:26 10° W 19:06:20 30° SW 19:06:20 30° SW visible
03 Feb 1.1 17:49:28 10° WSW 17:52:12 44° S 17:54:45 11° ESE visible
03 Feb 3.1 19:24:56 10° WSW 19:25:59 18° WSW 19:25:59 18° WSW visible
